User: anonymous   Login
Location: Caltech
(34.1382°N, 118.1253°W)
Time: 12:23:47
(UTC-08:00)
Language:

SEDSat Delta rocket - Orbit

View from above orbital plane
View from above orbital plane
View from above satellite
View from above satellite

Ground track
Ground track

The orbit data is extracted from the following two-line orbital elements,

1 25510U 98061C   16338.85170880 +.00000322 +00000-0 +45281-4 0  9996
2 25510 031.4327 180.5424 0328284 148.9546 327.5804 14.37132161949698
Epoch (UTC): 03 December 2016 20:26:27
Eccentricity: 0.0328284
inclination: 31.4327°
perigee height: 533 km
apogee height: 1002 km
right ascension of ascending node: 180.5424°
argument of perigee: 148.9546°
revolutions per day: 14.37132161
mean anomaly at epoch: 327.5804°
orbit number at epoch: 94969

The dashed part of the orbit path shows where the satellite is in the earth's shadow,  

DLR